#Datum;Uhrzeit;WR;Pac;DaySum;Status;WR;Pac;DaySum;Status;Pdc1;Udc;Temp;WR;Pac;DaySum;Status;Pdc1;Udc;Temp;WR;Pac;DaySum;Status;Pdc1;Udc;Temp;WR;Pac;DaySum;Status;Pdc1;Pdc2;Udc1;Udc2;Temp;WR;Pac;DaySum;Status;Pdc1;Pdc2;Udc1;Udc2;Temp;WR;Pac;DaySum;Status;Pdc1;Udc;Temp;WR;Pac;DaySum;Status;Pdc1;Udc;Temp;WR;Pac;DaySum;Status;Pdc1;Udc;Temp
11.03.21;23:55:00;1;446;11563;0;2;0;8819;0;0;0;0;3;0;5555;0;0;0;0;4;0;7659;0;0;0;0;5;0;0;0;0;0;0;0;0;6;0;13141;0;0;0;0;0;0;7;0;10190;0;0;0;0;8;0;10243;0;0;0;0;9;0;5532;0;0;0;0
11.03.21;23:50:00;1;526;11526;0;2;0;8819;0;0;0;0;3;0;5555;0;0;0;0;4;0;7659;0;0;0;0;5;0;0;0;0;0;0;0;0;6;0;13141;0;0;0;0;0;0;7;0;10190;0;0;0;0;8;0;10243;0;0;0;0;9;0;5532;0;0;0;0
11.03.21;23:45:00;1;492;11485;0;2;0;8819;0;0;0;0;3;0;5555;0;0;0;0;4;0;7659;0;0;0;0;5;0;0;0;0;0;0;0;0;6;0;13141;0;0;0;0;0;0;7;0;10190;0;0;0;0;8;0;10243;0;0;0;0;9;0;5532;0;0;0;0
11.03.21;23:40:00;1;463;11447;0;2;0;8819;0;0;0;0;3;0;5555;0;0;0;0;4;0;7659;0;0;0;0;5;0;0;0;0;0;0;0;0;6;0;13141;0;0;0;0;0;0;7;0;10190;0;0;0;0;8;0;10243;0;0;0;0;9;0;5532;0;0;0;0
11.03.21;23:35:00;1;487;11408;0;2;0;8819;0;0;0;0;3;0;5555;0;0;0;0;4;0;7659;0;0;0;0;5;0;0;0;0;0;0;0;0;6;0;13141;0;0;0;0;0;0;7;0;10190;0;0;0;0;8;0;10243;0;0;0;0;9;0;5532;0;0;0;0
11.03.21;23:30:00;1;503;11367;0;2;0;8819;0;0;0;0;3;0;5555;0;0;0;0;4;0;7659;0;0;0;0;5;0;0;0;0;0;0;0;0;6;0;13141;0;0;0;0;0;0;7;0;10190;0;0;0;0;8;0;10243;0;0;0;0;9;0;5532;0;0;0;0
11.03.21;23:25:00;1;692;11325;0;2;0;8819;0;0;0;0;3;0;5555;0;0;0;0;4;0;7659;0;0;0;0;5;0;0;0;0;0;0;0;0;6;0;13141;0;0;0;0;0;0;7;0;10190;0;0;0;0;8;0;10243;0;0;0;0;9;0;5532;0;0;0;0
11.03.21;23:20:00;1;504;11280;0;2;0;8819;0;0;0;0;3;0;5555;0;0;0;0;4;0;7659;0;0;0;0;5;0;0;0;0;0;0;0;0;6;0;13141;0;0;0;0;0;0;7;0;10190;0;0;0;0;8;0;10243;0;0;0;0;9;0;5532;0;0;0;0
11.03.21;23:15:00;1;467;11238;0;2;0;8819;0;0;0;0;3;0;5555;0;0;0;0;4;0;7659;0;0;0;0;5;0;0;0;0;0;0;0;0;6;0;13141;0;0;0;0;0;0;7;0;10190;0;0;0;0;8;0;10243;0;0;0;0;9;0;5532;0;0;0;0
11.03.21;23:10:00;1;548;11198;0;2;0;8819;0;0;0;0;3;0;5555;0;0;0;0;4;0;7659;0;0;0;0;5;0;0;0;0;0;0;0;0;6;0;13141;0;0;0;0;0;0;7;0;10190;0;0;0;0;8;0;10243;0;0;0;0;9;0;5532;0;0;0;0
11.03.21;23:05:00;1;567;11153;0;2;0;8819;0;0;0;0;3;0;5555;0;0;0;0;4;0;7659;0;0;0;0;5;0;0;0;0;0;0;0;0;6;0;13141;0;0;0;0;0;0;7;0;10190;0;0;0;0;8;0;10243;0;0;0;0;9;0;5532;0;0;0;0
11.03.21;23:00:00;1;534;11106;0;2;0;8819;0;0;0;0;3;0;5555;0;0;0;0;4;0;7659;0;0;0;0;5;0;0;0;0;0;0;0;0;6;0;13141;0;0;0;0;0;0;7;0;10190;0;0;0;0;8;0;10243;0;0;0;0;9;0;5532;0;0;0;0
11.03.21;22:55:00;1;441;11063;0;2;0;8819;0;0;0;0;3;0;5555;0;0;0;0;4;0;7659;0;0;0;0;5;0;0;0;0;0;0;0;0;6;0;13141;2;0;0;0;0;0;7;0;10190;0;0;0;0;8;0;10243;0;0;0;0;9;0;5532;0;0;0;0
11.03.21;22:50:00;1;547;11026;0;2;0;8819;0;0;0;0;3;0;5555;0;0;0;0;4;0;7659;0;0;0;0;5;0;0;0;0;0;0;0;0;6;0;13141;2;0;0;0;0;0;7;0;10190;0;0;0;0;8;0;10243;0;0;0;0;9;0;5532;0;0;0;0
11.03.21;22:45:00;1;443;10980;0;2;0;8819;0;0;0;0;3;0;5555;0;0;0;0;4;0;7659;0;0;0;0;5;0;0;0;0;0;0;0;0;6;0;13141;2;0;0;0;0;0;7;0;10190;0;0;0;0;8;0;10243;0;0;0;0;9;0;5532;0;0;0;0
11.03.21;22:40:00;1;463;10943;0;2;0;8819;0;0;0;0;3;0;5555;0;0;0;0;4;0;7659;0;0;0;0;5;0;0;0;0;0;0;0;0;6;0;13141;2;0;0;0;0;0;7;0;10190;0;0;0;0;8;0;10243;0;0;0;0;9;0;5532;0;0;0;0
11.03.21;22:35:00;1;513;10904;0;2;0;8819;0;0;0;0;3;0;5555;0;0;0;0;4;0;7659;0;0;0;0;5;0;0;0;0;0;0;0;0;6;0;13141;2;0;0;0;0;0;7;0;10190;0;0;0;0;8;0;10243;0;0;0;0;9;0;5532;0;0;0;0
11.03.21;22:30:00;1;578;10861;0;2;0;8819;0;0;0;0;3;0;5555;0;0;0;0;4;0;7659;0;0;0;0;5;0;0;0;0;0;0;0;0;6;0;13141;2;0;0;0;0;0;7;0;10190;0;0;0;0;8;0;10243;0;0;0;0;9;0;5532;0;0;0;0
11.03.21;22:25:00;1;598;10813;0;2;0;8819;0;0;0;0;3;0;5555;0;0;0;0;4;0;7659;0;0;0;0;5;0;0;0;0;0;0;0;0;6;0;13141;2;0;0;0;0;0;7;0;10190;0;0;0;0;8;0;10243;0;0;0;0;9;0;5532;0;0;0;0
11.03.21;22:20:00;1;594;10764;0;2;0;8819;0;0;0;0;3;0;5555;0;0;0;0;4;0;7659;0;0;0;0;5;0;0;0;0;0;0;0;0;6;0;13141;2;0;0;0;0;0;7;0;10190;0;0;0;0;8;0;10243;0;0;0;0;9;0;5532;0;0;0;0
11.03.21;22:15:00;1;618;10716;0;2;0;8819;0;0;0;0;3;0;5555;0;0;0;0;4;0;7659;0;0;0;0;5;0;0;0;0;0;0;0;0;6;0;13141;2;0;0;0;0;0;7;0;10190;0;0;0;0;8;0;10243;0;0;0;0;9;0;5532;0;0;0;0
11.03.21;22:10:00;1;613;10664;0;2;0;8819;0;0;0;0;3;0;5555;0;0;0;0;4;0;7659;0;0;0;0;5;0;0;0;0;0;0;0;0;6;0;13141;2;0;0;0;0;0;7;0;10190;0;0;0;0;8;0;10243;0;0;0;0;9;0;5532;0;0;0;0
11.03.21;22:05:00;1;596;10613;0;2;0;8819;0;0;0;0;3;0;5555;0;0;0;0;4;0;7659;0;0;0;0;5;0;0;0;0;0;0;0;0;6;0;13141;2;0;0;0;0;0;7;0;10190;0;0;0;0;8;0;10243;0;0;0;0;9;0;5532;0;0;0;0
11.03.21;22:00:00;1;597;10563;0;2;0;8819;0;0;0;0;3;0;5555;0;0;0;0;4;0;7659;0;0;0;0;5;0;0;0;0;0;0;0;0;6;0;13141;2;0;0;0;0;0;7;0;10190;0;0;0;0;8;0;10243;0;0;0;0;9;0;5532;0;0;0;0
11.03.21;21:55:00;1;551;10513;0;2;0;8819;0;0;0;0;3;0;5555;0;0;0;0;4;0;7659;0;0;0;0;5;0;0;0;0;0;0;0;0;6;0;13141;2;0;0;0;0;0;7;0;10190;0;0;0;0;8;0;10243;0;0;0;0;9;0;5532;0;0;0;0
11.03.21;21:50:00;1;592;10467;0;2;0;8819;0;0;0;0;3;0;5555;0;0;0;0;4;0;7659;0;0;0;0;5;0;0;0;0;0;0;0;0;6;0;13141;2;0;0;0;0;0;7;0;10190;0;0;0;0;8;0;10243;0;0;0;0;9;0;5532;0;0;0;0
11.03.21;21:45:00;1;522;10418;0;2;0;8819;0;0;0;0;3;0;5555;0;0;0;0;4;0;7659;0;0;0;0;5;0;0;0;0;0;0;0;0;6;0;13141;2;0;0;0;0;0;7;0;10190;0;0;0;0;8;0;10243;0;0;0;0;9;0;5532;0;0;0;0
11.03.21;21:40:00;1;506;10373;0;2;0;8819;0;0;0;0;3;0;5555;0;0;0;0;4;0;7659;0;0;0;0;5;0;0;0;0;0;0;0;0;6;0;13141;2;0;0;0;0;0;7;0;10190;0;0;0;0;8;0;10243;0;0;0;0;9;0;5532;0;0;0;0
11.03.21;21:35:00;1;507;10330;0;2;0;8819;0;0;0;0;3;0;5555;0;0;0;0;4;0;7659;0;0;0;0;5;0;0;0;0;0;0;0;0;6;0;13141;2;0;0;0;0;0;7;0;10190;0;0;0;0;8;0;10243;0;0;0;0;9;0;5532;0;0;0;0
11.03.21;21:30:00;1;517;10288;0;2;0;8819;0;0;0;0;3;0;5555;0;0;0;0;4;0;7659;0;0;0;0;5;0;0;0;0;0;0;0;0;6;0;13141;2;0;0;0;0;0;7;0;10190;0;0;0;0;8;0;10243;0;0;0;0;9;0;5532;0;0;0;0
11.03.21;21:25:00;1;514;10245;0;2;0;8819;0;0;0;0;3;0;5555;0;0;0;0;4;0;7659;0;0;0;0;5;0;0;0;0;0;0;0;0;6;0;13141;2;0;0;0;0;0;7;0;10190;0;0;0;0;8;0;10243;0;0;0;0;9;0;5532;0;0;0;0
11.03.21;21:20:00;1;561;10202;0;2;0;8819;0;0;0;0;3;0;5555;0;0;0;0;4;0;7659;0;0;0;0;5;0;0;0;0;0;0;0;0;6;0;13141;2;0;0;0;0;0;7;0;10190;0;0;0;0;8;0;10243;0;0;0;0;9;0;5532;0;0;0;0
11.03.21;21:15:00;1;583;10156;0;2;0;8819;0;0;0;0;3;0;5555;0;0;0;0;4;0;7659;0;0;0;0;5;0;0;0;0;0;0;0;0;6;0;13141;2;0;0;0;0;0;7;0;10190;0;0;0;0;8;0;10243;0;0;0;0;9;0;5532;0;0;0;0
11.03.21;21:10:00;1;557;10107;0;2;0;8819;0;0;0;0;3;0;5555;0;0;0;0;4;0;7659;0;0;0;0;5;0;0;0;0;0;0;0;0;6;0;13141;2;0;0;0;0;0;7;0;10190;0;0;0;0;8;0;10243;0;0;0;0;9;0;5532;0;0;0;0
11.03.21;21:05:00;1;558;10061;0;2;0;8819;0;0;0;0;3;0;5555;0;0;0;0;4;0;7659;0;0;0;0;5;0;0;0;0;0;0;0;0;6;0;13141;2;0;0;0;0;0;7;0;10190;0;0;0;0;8;0;10243;0;0;0;0;9;0;5532;0;0;0;0
11.03.21;21:00:00;1;618;10013;0;2;0;8819;0;0;0;0;3;0;5555;0;0;0;0;4;0;7659;0;0;0;0;5;0;0;0;0;0;0;0;0;6;0;13141;2;0;0;0;0;0;7;0;10190;0;0;0;0;8;0;10243;0;0;0;0;9;0;5532;0;0;0;0
11.03.21;20:55:00;1;601;9962;0;2;0;8819;0;0;0;0;3;0;5555;0;0;0;0;4;0;7659;0;0;0;0;5;0;0;0;0;0;0;0;0;6;0;13141;2;0;0;0;0;0;7;0;10190;0;0;0;0;8;0;10243;0;0;0;0;9;0;5532;0;0;0;0
11.03.21;20:50:00;1;608;9911;0;2;0;8819;0;0;0;0;3;0;5555;0;0;0;0;4;0;7659;0;0;0;0;5;0;0;0;0;0;0;0;0;6;0;13141;2;0;0;0;0;0;7;0;10190;0;0;0;0;8;0;10243;0;0;0;0;9;0;5532;0;0;0;0
11.03.21;20:45:00;1;545;9861;0;2;0;8819;0;0;0;0;3;0;5555;0;0;0;0;4;0;7659;0;0;0;0;5;0;0;0;0;0;0;0;0;6;0;13141;2;0;0;0;0;0;7;0;10190;0;0;0;0;8;0;10243;0;0;0;0;9;0;5532;0;0;0;0
11.03.21;20:40:00;1;531;9815;0;2;0;8819;0;0;0;0;3;0;5555;0;0;0;0;4;0;7659;0;0;0;0;5;0;0;0;0;0;0;0;0;6;0;13141;2;0;0;0;0;0;7;0;10190;0;0;0;0;8;0;10243;0;0;0;0;9;0;5532;0;0;0;0
11.03.21;20:35:00;1;561;9771;0;2;0;8819;0;0;0;0;3;0;5555;0;0;0;0;4;0;7659;0;0;0;0;5;0;0;0;0;0;0;0;0;6;0;13141;2;0;0;0;0;0;7;0;10190;0;0;0;0;8;0;10243;0;0;0;0;9;0;5532;0;0;0;0
11.03.21;20:30:00;1;538;9724;0;2;0;8819;0;0;0;0;3;0;5555;0;0;0;0;4;0;7659;0;0;0;0;5;0;0;0;0;0;0;0;0;6;0;13141;2;0;0;0;0;0;7;0;10190;0;0;0;0;8;0;10243;0;0;0;0;9;0;5532;0;0;0;0
11.03.21;20:25:00;1;516;9679;0;2;0;8819;0;0;0;0;3;0;5555;0;0;0;0;4;0;7659;0;0;0;0;5;0;0;0;0;0;0;0;0;6;0;13141;2;0;0;0;0;0;7;0;10190;0;0;0;0;8;0;10243;0;0;0;0;9;0;5532;0;0;0;0
11.03.21;20:20:00;1;554;9636;0;2;0;8819;0;0;0;0;3;0;5555;0;0;0;0;4;0;7659;0;0;0;0;5;0;0;0;0;0;0;0;0;6;0;13141;2;0;0;0;0;0;7;0;10190;0;0;0;0;8;0;10243;0;0;0;0;9;0;5532;0;0;0;0
11.03.21;20:15:00;1;574;9591;0;2;0;8819;0;0;0;0;3;0;5555;0;0;0;0;4;0;7659;0;0;0;0;5;0;0;0;0;0;0;0;0;6;0;13141;2;0;0;0;0;0;7;0;10190;0;0;0;0;8;0;10243;0;0;0;0;9;0;5532;0;0;0;0
11.03.21;20:10:00;1;564;9542;0;2;0;8819;0;0;0;0;3;0;5555;0;0;0;0;4;0;7659;0;0;0;0;5;0;0;0;0;0;0;0;0;6;0;13141;2;0;0;0;0;0;7;0;10190;0;0;0;0;8;0;10243;0;0;0;0;9;0;5532;0;0;0;0
11.03.21;20:05:00;1;573;9495;0;2;0;8819;0;0;0;0;3;0;5555;0;0;0;0;4;0;7659;0;0;0;0;5;0;0;0;0;0;0;0;0;6;0;13141;2;0;0;0;0;0;7;0;10190;0;0;0;0;8;0;10243;0;0;0;0;9;0;5532;0;0;0;0
11.03.21;20:00:00;1;509;9449;0;2;0;8819;0;0;0;0;3;0;5555;0;0;0;0;4;0;7659;0;0;0;0;5;0;0;0;0;0;0;0;0;6;0;13141;2;0;0;0;0;0;7;0;10190;0;0;0;0;8;0;10243;0;0;0;0;9;0;5532;0;0;0;0
11.03.21;19:55:00;1;511;9406;0;2;0;8819;0;0;0;0;3;0;5555;0;0;0;0;4;0;7659;0;0;0;0;5;0;0;0;0;0;0;0;0;6;0;13141;2;0;0;0;0;0;7;0;10190;0;0;0;0;8;0;10243;0;0;0;0;9;0;5532;0;0;0;0
11.03.21;19:50:00;1;530;9363;0;2;0;8819;0;0;0;0;3;0;5555;0;0;0;0;4;0;7659;0;0;0;0;5;0;0;0;0;0;0;0;0;6;0;13141;2;0;0;0;0;0;7;0;10190;0;0;0;0;8;0;10243;0;0;0;0;9;0;5532;0;0;0;0
11.03.21;19:45:00;1;534;9319;0;2;0;8819;0;0;0;0;3;0;5555;0;0;0;0;4;0;7659;0;0;0;0;5;0;0;0;0;0;0;0;0;6;0;13141;2;0;0;0;0;0;7;0;10190;0;0;0;0;8;0;10243;0;0;0;0;9;0;5532;0;0;0;0
11.03.21;19:40:00;1;522;9274;0;2;0;8819;0;0;0;0;3;0;5555;0;0;0;0;4;0;7659;0;0;0;0;5;0;0;0;0;0;0;0;0;6;0;13141;2;0;0;0;0;0;7;0;10190;0;0;0;0;8;0;10243;0;0;0;0;9;0;5532;0;0;0;0
11.03.21;19:35:00;1;557;9231;0;2;0;8819;0;0;0;0;3;0;5555;0;0;0;0;4;0;7659;0;0;0;0;5;0;0;0;0;0;0;0;0;6;0;13141;0;0;0;0;0;0;7;0;10190;0;0;0;0;8;0;10243;0;0;0;0;9;0;5532;0;0;0;0
11.03.21;19:30:00;1;524;9184;0;2;0;8819;0;0;0;0;3;0;5555;0;0;0;0;4;0;7659;0;0;0;0;5;0;0;0;0;0;0;0;0;6;0;13141;2;0;0;0;0;0;7;0;10190;0;0;0;0;8;0;10243;0;0;0;0;9;0;5532;0;0;0;0
11.03.21;19:25:00;1;546;9140;0;2;0;8819;0;0;0;0;3;0;5555;0;0;0;0;4;0;7659;0;0;0;0;5;0;0;0;0;0;0;0;0;6;0;13141;2;0;0;0;0;0;7;0;10190;0;0;0;0;8;0;10243;0;0;0;0;9;0;5532;0;0;0;0
11.03.21;19:20:00;1;616;9094;0;2;0;8819;0;0;0;0;3;0;5555;0;0;0;0;4;0;7659;0;0;0;0;5;0;0;0;0;0;0;0;0;6;0;13141;2;0;0;0;0;0;7;0;10190;0;0;0;0;8;0;10243;0;0;0;0;9;0;5532;0;0;0;0
11.03.21;19:15:00;1;859;9042;0;2;0;8819;0;0;0;0;3;0;5555;0;0;0;0;4;0;7659;0;0;0;0;5;0;0;0;0;0;0;0;0;6;0;13141;2;0;0;0;0;0;7;0;10190;0;0;0;0;8;0;10243;0;0;0;0;9;0;5532;0;0;0;0
11.03.21;19:10:00;1;556;8987;0;2;0;8819;0;0;0;0;3;0;5555;0;0;0;0;4;0;7659;0;0;0;0;5;0;0;0;0;0;0;0;0;6;0;13141;2;0;0;0;0;0;7;0;10190;0;0;0;0;8;0;10243;0;0;0;0;9;0;5532;0;0;0;0
11.03.21;19:05:00;1;517;8940;0;2;0;8819;0;0;0;0;3;0;5555;0;0;0;0;4;0;7659;0;0;0;0;5;0;0;0;0;0;0;0;0;6;0;13141;2;0;0;0;0;0;7;0;10190;0;0;0;0;8;0;10243;0;0;0;0;9;0;5532;0;0;0;0
11.03.21;19:00:00;1;516;8897;0;2;0;8819;0;0;0;0;3;0;5555;0;0;0;0;4;0;7659;0;0;0;0;5;0;0;0;0;0;0;0;0;6;0;13141;2;0;0;0;0;0;7;0;10190;0;0;0;0;8;0;10243;0;0;0;0;9;0;5532;0;0;0;0
11.03.21;18:55:00;1;518;8854;0;2;0;8819;0;0;0;0;3;0;5555;0;0;0;0;4;0;7659;0;0;0;0;5;0;0;0;0;0;0;0;0;6;0;13141;2;0;0;0;0;0;7;0;10190;0;0;0;0;8;0;10243;0;0;0;0;9;0;5532;0;0;0;0
11.03.21;18:50:00;1;520;8811;0;2;0;8819;0;0;0;0;3;0;5555;0;0;0;0;4;0;7659;0;0;0;0;5;0;0;0;0;0;0;0;0;6;0;13141;2;0;0;0;0;0;7;0;10190;0;0;0;0;8;0;10243;0;0;0;0;9;0;5532;0;0;0;0
11.03.21;18:45:00;1;670;8767;0;2;0;8819;0;0;0;0;3;0;5555;0;0;0;0;4;0;7659;0;0;0;0;5;0;0;0;0;0;0;0;0;6;0;13141;2;0;0;0;0;0;7;0;10190;0;0;0;0;8;0;10243;0;0;0;0;9;0;5532;0;0;0;0
11.03.21;18:40:00;1;520;8719;0;2;0;8819;0;0;0;0;3;0;5555;0;0;0;0;4;0;7659;0;0;0;0;5;0;0;0;0;0;0;0;0;6;0;13141;2;0;0;0;0;0;7;0;10190;0;0;0;0;8;0;10243;0;0;0;0;9;0;5532;0;0;0;0
11.03.21;18:35:00;1;543;8676;0;2;0;8819;0;0;0;0;3;0;5555;0;0;0;0;4;0;7659;0;0;0;0;5;0;0;0;0;0;0;0;0;6;0;13141;2;0;0;0;0;0;7;0;10190;0;0;0;0;8;0;10243;0;0;0;0;9;0;5532;0;0;0;0
11.03.21;18:30:00;1;560;8631;0;2;0;8819;0;0;0;0;3;0;5555;0;0;0;0;4;0;7659;0;0;0;0;5;0;0;0;0;0;0;0;0;6;0;13141;2;0;0;0;0;0;7;0;10190;0;0;0;0;8;0;10243;0;0;0;0;9;0;5532;0;0;0;0
11.03.21;18:25:00;1;1091;8584;0;2;0;8819;0;0;0;0;3;0;5555;0;0;0;0;4;0;7659;0;0;0;0;5;0;0;0;0;0;0;0;0;6;0;13141;2;0;0;0;0;0;7;0;10190;0;0;0;0;8;0;10243;0;0;0;0;9;0;5532;0;0;0;0
11.03.21;18:20:00;1;594;8522;0;2;0;8819;0;0;0;0;3;0;5555;0;0;96;5;4;0;7659;0;0;0;0;5;0;0;0;0;0;0;0;0;6;0;13141;0;0;0;0;0;0;7;0;10190;0;0;0;0;8;0;10243;0;0;0;0;9;0;5532;0;0;0;0
11.03.21;18:15:00;1;659;8471;0;2;0;8819;0;0;0;0;3;0;5555;6;0;275;14;4;0;7659;0;0;0;0;5;0;0;0;0;0;0;0;0;6;0;13141;1;0;0;0;0;0;7;0;10190;0;0;0;0;8;0;10243;0;0;0;0;9;0;5532;0;0;0;0
11.03.21;18:10:00;1;662;8416;0;2;0;8819;6;0;271;11;3;0;5555;6;0;301;14;4;0;7659;0;0;10;1;5;0;0;0;0;0;0;0;0;6;0;13141;2;0;0;0;0;0;7;0;10190;0;0;0;0;8;0;10243;0;0;0;0;9;0;5532;0;0;0;0
11.03.21;18:05:00;1;621;8361;0;2;0;8819;6;0;301;11;3;0;5555;6;0;348;14;4;0;7659;2;0;80;13;5;0;0;0;0;0;0;0;0;6;0;13141;94;0;0;29;39;5;7;0;10190;0;0;0;0;8;0;10243;0;0;0;0;9;0;5532;0;0;0;0
11.03.21;18:00:00;1;584;8309;0;2;0;8819;6;0;355;12;3;0;5555;6;2;415;15;4;0;7659;1;0;147;14;5;0;0;0;0;0;0;0;0;6;0;13141;23;0;10;470;229;23;7;0;10190;0;0;261;13;8;0;10243;0;0;266;13;9;0;5532;6;0;317;11
11.03.21;17:55:00;1;585;8261;0;2;0;8819;6;0;373;12;3;0;5555;6;1;437;15;4;0;7659;1;0;177;14;5;0;0;0;0;0;0;0;0;6;0;13141;23;4;4;217;537;23;7;0;10190;6;0;339;16;8;0;10243;6;0;345;16;9;0;5532;6;0;353;12
11.03.21;17:50:00;1;653;8211;0;2;0;8819;6;0;388;12;3;0;5555;6;3;471;15;4;0;7659;1;0;207;14;5;0;0;0;0;0;0;0;0;6;0;13141;23;6;4;198;561;23;7;0;10190;6;0;402;16;8;0;10243;6;0;407;16;9;0;5532;6;0;423;12
11.03.21;17:45:00;1;804;8157;0;2;0;8819;6;0;399;12;3;1;5555;6;4;487;15;4;0;7659;3;0;202;15;5;0;0;0;0;0;0;0;0;6;0;13141;8;5;4;182;571;24;7;0;10190;6;1;410;16;8;0;10243;6;1;410;16;9;1;5532;6;2;436;12
11.03.21;17:40:00;1;654;8089;0;2;0;8819;6;0;397;12;3;2;5555;3;6;464;15;4;0;7659;1;0;215;15;5;0;0;0;0;0;0;0;0;6;5;13141;23;2;10;495;550;25;7;0;10190;6;1;411;17;8;0;10243;6;1;411;16;9;0;5532;6;1;433;12
11.03.21;17:35:00;1;767;8032;0;2;0;8819;6;0;410;13;3;1;5555;6;5;500;15;4;0;7659;1;0;230;15;5;0;0;0;0;0;0;0;0;6;53;13140;4;14;33;444;455;26;7;0;10190;6;3;424;17;8;0;10243;6;1;437;17;9;0;5532;6;3;459;12
11.03.21;17:30:00;1;734;7969;0;2;13;8819;6;25;396;13;3;1;5555;6;6;512;16;4;4;7659;3;5;199;16;5;0;0;0;0;0;0;0;0;6;78;13135;4;31;51;444;455;26;7;0;10190;6;0;478;17;8;0;10243;6;0;482;17;9;0;5532;6;0;528;12
11.03.21;17:25:00;1;760;7907;0;2;87;8818;4;121;368;14;3;18;5554;6;28;512;16;4;54;7659;3;56;197;16;5;0;0;0;0;0;0;0;0;6;155;13129;4;60;81;444;455;26;7;76;10190;4;105;421;18;8;71;10243;4;106;427;17;9;2;5532;3;7;549;13
11.03.21;17:20:00;1;401;7843;0;2;116;8811;4;151;377;14;3;55;5553;6;84;488;16;4;79;7654;3;82;202;16;5;0;0;0;0;0;0;0;0;6;186;13115;4;80;96;444;455;26;7;110;10184;4;152;441;18;8;116;10236;4;149;438;17;9;22;5532;6;31;551;13
11.03.21;17:15:00;1;409;7811;0;2;164;8801;4;200;374;14;3;96;5549;4;131;483;16;4;123;7648;5;128;225;16;5;0;0;0;0;0;0;0;0;6;239;13100;4;99;121;444;455;26;7;164;10174;4;199;449;18;8;157;10227;4;197;455;17;9;89;5531;4;119;481;13
11.03.21;17:10:00;1;370;7777;0;2;88;8788;4;122;366;14;3;14;5541;4;23;518;16;4;43;7638;3;45;197;16;5;0;0;0;0;0;0;0;0;6;137;13080;4;54;77;444;454;26;7;60;10161;4;96;389;18;8;56;10214;4;99;446;17;9;11;5523;3;19;530;13
11.03.21;17:05:00;1;336;7745;0;2;88;8780;4;122;359;14;3;19;5540;3;31;515;16;4;48;7634;3;50;197;16;5;0;0;0;0;0;0;0;0;6;146;13069;4;66;94;444;454;26;7;63;10156;4;93;396;18;8;59;10209;4;97;402;17;9;6;5522;6;11;539;13
11.03.21;17:00:00;1;334;7717;0;2;145;8773;4;180;376;14;3;79;5538;4;119;500;17;4;96;7630;3;100;212;16;5;0;0;0;0;0;0;0;0;6;203;13057;4;102;121;445;455;26;7;101;10151;4;143;440;18;8;102;10204;4;142;450;18;9;30;5521;6;43;529;13
11.03.21;16:55:00;1;357;7689;0;2;144;8761;4;181;370;14;3;82;5531;4;121;482;17;4;93;7622;5;97;208;17;5;0;0;0;0;0;0;0;0;6;202;13039;4;89;107;444;455;26;7;95;10142;4;147;465;18;8;123;10196;4;153;409;18;9;46;5519;4;64;492;14
11.03.21;16:50:00;1;429;7660;0;2;143;8749;4;180;372;15;3;82;5524;4;118;466;17;4;96;7614;3;100;207;17;5;0;0;0;0;0;0;0;0;6;208;13023;4;85;102;445;455;26;7;114;10134;4;154;447;18;8;123;10186;4;156;415;18;9;46;5515;6;66;509;14
11.03.21;16:45:00;1;451;7624;0;2;197;8737;4;237;382;15;3;116;5517;4;155;502;17;4;150;7606;5;156;223;17;5;0;0;0;0;0;0;0;0;6;273;13005;4;132;160;444;455;26;7;176;10125;4;210;444;18;8;176;10176;4;215;427;18;9;93;5512;4;126;497;14
11.03.21;16:40:00;1;406;7586;0;2;197;8720;4;234;379;15;3;115;5508;4;155;501;17;4;153;7593;5;159;222;17;5;0;0;0;0;0;0;0;0;6;276;12982;4;130;153;444;455;26;7;191;10110;4;232;465;18;8;194;10161;4;235;453;18;9;106;5504;4;140;509;14
11.03.21;16:35:00;1;431;7550;0;2;163;8704;4;202;382;15;3;94;5498;4;134;494;17;4;122;7581;5;127;221;17;5;0;0;0;0;0;0;0;0;6;242;12959;4;110;135;444;468;26;7;158;10094;4;200;449;18;8;166;10144;4;204;438;18;9;87;5495;4;118;483;15
11.03.21;16:30:00;1;453;7514;0;2;281;8690;4;322;392;15;3;170;5490;4;210;496;18;4;226;7570;5;235;228;17;5;0;0;0;0;0;0;0;0;6;427;12937;4;204;237;557;553;26;7;239;10081;4;279;464;18;8;240;10131;4;284;474;18;9;131;5488;4;167;505;15
11.03.21;16:25:00;1;457;7476;0;2;358;8667;4;401;395;16;3;220;5476;4;263;503;18;4;296;7552;5;308;234;18;5;0;0;0;0;0;0;0;0;6;500;12901;4;233;285;488;562;26;7;324;10061;4;377;477;19;8;327;10111;4;374;486;18;9;187;5477;4;219;516;15
11.03.21;16:20:00;1;450;7438;0;2;332;8637;4;376;396;16;3;204;5458;4;244;485;18;4;271;7527;5;282;234;18;5;0;0;0;0;0;0;0;0;6;446;12861;4;195;255;444;550;26;7;309;10034;4;353;477;19;8;324;10084;4;363;466;18;9;173;5461;4;208;518;15
11.03.21;16:15:00;1;456;7401;0;2;324;8610;4;367;394;16;3;198;5441;4;241;501;18;4;264;7505;5;275;234;18;5;0;0;0;0;0;0;0;0;6;437;12823;4;184;247;444;552;26;7;300;10009;4;336;481;19;8;299;10056;4;348;477;19;9;166;5447;4;200;513;15
11.03.21;16:10:00;1;471;7362;0;2;273;8583;4;312;385;16;3;167;5424;4;205;507;18;4;216;7483;5;225;231;18;5;0;0;0;0;0;0;0;0;6;345;12788;4;167;185;444;455;26;7;257;9984;4;296;468;19;8;257;10032;4;300;467;19;9;141;5433;4;175;510;15
11.03.21;16:05:00;1;403;7322;0;2;236;8560;4;276;380;16;3;142;5410;4;183;506;18;4;184;7465;5;191;228;18;5;0;0;0;0;0;0;0;0;6;315;12759;4;151;169;444;455;26;7;225;9962;4;262;445;19;8;224;10010;4;264;449;19;9;118;5421;4;152;516;16
11.03.21;16:00:00;1;396;7288;0;2;197;8540;4;236;380;16;3;115;5399;4;155;505;18;4;150;7450;5;156;227;18;5;0;0;0;0;0;0;0;0;6;275;12733;4;132;165;444;455;26;7;181;9943;4;219;452;19;8;179;9992;4;219;465;19;9;100;5411;4;132;497;16
11.03.21;15:55:00;1;366;7255;0;2;176;8524;4;214;372;17;3;102;5389;4;145;493;19;4;133;7437;5;138;224;19;5;0;0;0;0;0;0;0;0;6;255;12710;4;125;158;444;455;26;7;152;9928;4;196;420;20;8;161;9977;4;198;425;19;9;89;5403;4;116;471;16
11.03.21;15:50:00;1;334;7224;0;2;208;8509;4;245;377;17;3;122;5380;4;160;496;19;4;154;7426;5;160;226;19;5;0;0;0;0;0;0;0;0;6;289;12689;4;131;156;444;455;26;7;198;9915;4;235;432;20;8;201;9963;4;241;443;20;9;104;5396;4;136;501;16
11.03.21;15:45:00;1;320;7195;0;2;272;8492;4;314;382;17;3;166;5371;4;207;494;19;4;219;7413;5;228;229;19;5;0;0;0;0;0;0;0;0;6;364;12664;4;189;213;444;455;27;7;258;9899;4;303;463;20;8;269;9946;4;306;462;20;9;139;5387;4;175;514;17
11.03.21;15:40:00;1;373;7168;0;2;270;8469;4;309;374;18;3;163;5357;4;206;506;19;4;217;7395;5;226;230;20;5;0;0;0;0;0;0;0;0;6;359;12634;4;164;185;444;455;27;7;257;9878;4;293;460;20;8;256;9924;4;296;468;20;9;138;5375;4;174;508;17
11.03.21;15:35:00;1;327;7137;0;2;215;8447;4;254;378;18;3;127;5343;4;169;507;19;4;168;7377;5;175;225;20;5;0;0;0;0;0;0;0;0;6;304;12604;4;141;165;444;455;27;7;207;9856;4;241;431;21;8;204;9902;4;245;462;20;9;112;5364;4;144;504;17
11.03.21;15:30:00;1;322;7109;0;2;197;8429;4;235;372;19;3;117;5333;4;156;484;20;4;145;7363;5;152;222;21;5;0;0;0;0;0;0;0;0;6;314;12579;4;135;170;482;508;27;7;183;9839;4;222;412;21;8;191;9886;4;227;445;21;9;98;5355;4;131;499;18
11.03.21;15:25:00;1;324;7082;0;2;319;8413;4;363;385;20;3;193;5323;4;233;500;20;4;268;7351;5;279;229;21;5;0;0;0;0;0;0;0;0;6;536;12552;4;250;283;581;555;27;7;320;9824;4;360;459;21;8;319;9870;4;360;457;21;9;170;5346;4;202;508;18
11.03.21;15:20:00;1;343;7055;0;2;410;8385;4;457;393;20;3;254;5306;4;299;503;21;4;350;7328;5;365;233;22;5;0;0;0;0;0;0;0;0;6;671;12505;4;327;353;571;557;27;7;440;9796;4;482;461;22;8;446;9842;4;487;460;21;9;235;5332;4;273;516;19
11.03.21;15:15:00;1;427;7027;0;2;508;8351;4;559;400;21;3;316;5285;4;362;497;21;4;437;7299;5;455;233;22;5;0;0;0;0;0;0;0;0;6;830;12449;4;400;428;579;561;27;7;548;9760;4;601;468;22;8;554;9805;4;604;465;22;9;295;5312;4;339;518;19
11.03.21;15:10:00;1;457;6992;0;2;612;8308;4;667;398;22;3;382;5258;4;433;502;22;4;536;7262;5;558;236;23;5;0;0;0;0;0;0;0;0;6;1025;12378;4;514;534;583;561;28;7;705;9713;4;752;467;22;8;698;9758;4;754;470;22;9;376;5287;4;420;521;20
11.03.21;15:05:00;1;370;6953;0;2;1060;8257;4;1134;405;23;3;669;5227;4;731;516;22;4;935;7217;5;973;238;23;5;0;0;0;0;0;0;0;0;6;1651;12290;4;849;852;591;572;28;7;1183;9655;4;1259;481;23;8;1183;9700;4;1252;477;22;9;636;5256;4;697;529;21
11.03.21;15:00:00;1;385;6922;0;2;1624;8168;4;1720;406;24;3;1027;5170;4;1103;523;23;4;1405;7138;5;1463;242;24;5;0;0;0;0;0;0;0;0;6;2323;12146;4;1200;1193;601;578;28;7;1965;9555;4;2062;492;23;8;1913;9600;4;2015;475;23;9;1055;5202;4;1130;528;21
11.03.21;14:55:00;1;386;6889;0;2;1541;8035;4;1635;407;25;3;942;5086;4;1017;523;23;4;1272;7023;5;1325;239;24;5;0;0;0;0;0;0;0;0;6;2061;11952;4;1058;1052;593;575;28;7;1672;9397;4;1770;485;23;8;1662;9446;4;1749;471;23;9;899;5117;4;973;532;21
11.03.21;14:50:00;1;381;6857;0;2;1836;7900;4;1941;401;26;3;1119;5006;4;1196;491;23;4;1581;6915;5;1647;240;24;5;0;0;0;0;0;0;0;0;6;2418;11770;4;1260;1247;590;576;28;7;2088;9254;4;2191;484;23;8;2089;9305;4;2193;475;23;9;1151;5042;4;1231;532;22
11.03.21;14:45:00;1;332;6825;0;2;2118;7748;4;2233;407;26;3;1276;4913;4;1357;496;23;4;1870;6783;5;1948;238;25;5;0;0;0;0;0;0;0;0;6;2800;11564;4;1445;1424;593;573;28;7;2282;9080;4;2402;486;23;8;2327;9131;4;2444;484;23;9;1325;4946;4;1410;528;22
11.03.21;14:40:00;1;369;6797;0;2;2996;7571;4;3158;420;26;3;1822;4807;4;1927;500;23;4;2620;6630;5;2730;240;24;5;0;0;0;0;0;0;0;0;6;3957;11334;4;2047;1986;599;574;28;7;3737;8894;4;3924;477;23;8;3887;8942;4;4067;472;22;9;2064;4837;4;2185;505;22
11.03.21;14:35:00;1;329;6766;0;2;2613;7323;4;2756;406;25;3;1602;4657;4;1700;509;24;4;2256;6417;5;2350;242;23;5;0;0;0;0;0;0;0;0;6;3575;11011;4;1854;1799;603;587;27;7;3121;8596;4;3272;494;22;8;3245;8634;4;3402;465;22;9;1769;4673;4;1876;533;22
11.03.21;14:30:00;1;382;6738;0;2;2143;7108;4;2258;400;24;3;1279;4522;4;1370;533;23;4;1741;6224;5;1814;244;23;5;0;0;0;0;0;0;0;0;6;2900;10702;4;1479;1449;604;584;27;7;2839;8318;4;2971;483;22;8;2913;8350;4;3054;477;22;9;1523;4517;4;1619;531;21
11.03.21;14:25:00;1;363;6702;0;2;2397;6929;4;2527;410;25;3;1534;4415;4;1630;528;23;4;2132;6077;5;2220;238;23;5;0;0;0;0;0;0;0;0;6;3408;10454;4;1780;1728;600;581;27;7;2990;8070;4;3144;495;22;8;2890;8094;4;3027;468;22;9;1501;4388;4;1598;524;21
11.03.21;14:20:00;1;410;6671;0;2;1868;6723;4;1972;409;24;3;1235;4282;4;1319;516;22;4;1698;5893;5;1769;240;22;5;0;0;0;0;0;0;0;0;6;2744;10156;4;1403;1392;592;577;27;7;2448;7813;4;2573;482;22;8;2500;7844;4;2618;480;22;9;1378;4260;4;1469;541;20
11.03.21;14:15:00;1;406;6637;0;2;2127;6565;4;2241;388;24;3;1364;4178;4;1455;515;23;4;1879;5750;5;1957;242;22;5;0;0;0;0;0;0;0;0;6;3226;9937;4;1683;1635;601;573;27;7;3013;7606;4;3161;480;22;8;2855;7631;4;2999;485;21;9;1514;4142;4;1609;517;21
11.03.21;14:10:00;1;455;6603;0;2;2425;6388;4;2547;395;23;3;1608;4064;4;1703;508;22;4;2191;5593;5;2281;244;21;5;0;0;0;0;0;0;0;0;6;3651;9655;4;1885;1838;603;588;27;7;3319;7348;4;3478;486;21;8;3262;7391;4;3414;488;21;9;1821;4010;4;1927;524;20
11.03.21;14:05:00;1;288;6567;0;2;1422;6184;4;1505;410;23;3;919;3929;4;989;514;22;4;1244;5409;5;1296;240;21;5;0;0;0;0;0;0;0;0;6;2060;9363;4;1040;1030;598;578;27;7;1650;7070;4;1740;487;21;8;1719;7117;4;1814;485;21;9;936;3857;4;1010;536;19
11.03.21;14:00:00;1;290;6542;0;2;1447;6067;4;1534;413;23;3;927;3853;4;1001;520;22;4;1261;5306;5;1313;240;21;5;0;0;0;0;0;0;0;0;6;2115;9196;4;1116;1099;598;569;27;7;1588;6934;4;1680;487;21;8;1591;6975;4;1677;474;21;9;862;3779;4;932;528;19